Time,TemperatureF,DewpointF,PressureIn,WindDirection,WindDirectionDegrees,WindSpeedMPH,WindSpeedGustMPH,Humidity,HourlyPrecipIn,Conditions,Clouds,dailyrainin,SolarRadiationWatts/m^2,SoftwareType,DateUTC
2013-09-17 00:00:00,55.0,51.0,-100.00,SW,223,2.0,5.0,87,-99.99,,,-99.99,0.000000,,2013-09-17 07:00:00,
2013-09-17 00:52:00,55.0,51.0,-100.00,SW,223,2.0,5.0,87,-99.99,,,-99.99,0.000000,,2013-09-17 07:52:00,
2013-09-17 01:00:00,54.0,51.0,-100.00,South,174,2.0,4.0,87,-99.99,,,0.00,0.000000,,2013-09-17 08:00:00,
2013-09-17 01:52:00,54.0,51.0,-100.00,South,174,2.0,4.0,87,-99.99,,,0.00,0.000000,,2013-09-17 08:52:00,
2013-09-17 02:00:00,54.0,50.0,-100.00,SW,235,2.0,6.0,86,-99.99,,,0.00,0.000000,,2013-09-17 09:00:00,
2013-09-17 02:42:00,54.0,50.0,-100.00,SW,235,2.0,6.0,86,-99.99,,,0.00,0.000000,,2013-09-17 09:42:00,
2013-09-17 02:53:00,54.0,50.0,-100.00,SW,235,2.0,6.0,86,-99.99,,,0.00,0.000000,,2013-09-17 09:53:00,
2013-09-17 03:00:00,55.0,50.0,-100.00,SSE,163,2.0,5.0,84,-99.99,,,0.00,0.000000,,2013-09-17 10:00:00,
2013-09-17 03:42:00,55.0,50.0,-100.00,SSE,163,2.0,5.0,84,-99.99,,,0.00,0.000000,,2013-09-17 10:42:00,
2013-09-17 03:53:00,55.0,50.0,-100.00,SSE,163,2.0,5.0,84,-99.99,,,0.00,0.000000,,2013-09-17 10:53:00,
2013-09-17 04:00:00,56.0,52.0,-100.00,SW,233,2.0,5.0,87,-99.99,,,0.00,0.000000,,2013-09-17 11:00:00,
2013-09-17 04:52:00,56.0,52.0,-100.00,SW,233,2.0,5.0,87,-99.99,,,0.00,0.000000,,2013-09-17 11:52:00,
2013-09-17 05:00:00,54.0,50.0,-100.00,SSW,194,2.0,4.0,85,-99.99,,,0.00,0.000000,,2013-09-17 12:00:00,
2013-09-17 05:42:00,54.0,50.0,-100.00,SSW,194,2.0,4.0,85,-99.99,,,0.00,0.000000,,2013-09-17 12:42:00,
2013-09-17 05:52:00,54.0,50.0,-100.00,SSW,194,2.0,4.0,85,-99.99,,,0.00,0.000000,,2013-09-17 12:52:00,
2013-09-17 06:00:00,57.0,52.0,-100.00,SSW,213,3.0,9.0,84,-99.99,,,0.00,0.000000,,2013-09-17 13:00:00,
2013-09-17 06:42:00,57.0,52.0,-100.00,SSW,213,3.0,9.0,84,-99.99,,,0.00,0.000000,,2013-09-17 13:42:00,
2013-09-17 06:52:00,57.0,52.0,-100.00,SSW,213,3.0,9.0,84,-99.99,,,0.00,0.000000,,2013-09-17 13:52:00,
2013-09-17 07:00:00,57.0,52.0,-100.00,SW,232,4.0,9.0,82,-99.99,,,0.00,5.230000,,2013-09-17 14:00:00,
2013-09-17 07:42:00,57.0,52.0,-100.00,SW,232,4.0,9.0,82,-99.99,,,0.00,5.230000,,2013-09-17 14:42:00,
2013-09-17 07:52:00,57.0,52.0,-100.00,SW,232,4.0,9.0,82,-99.99,,,0.00,5.230000,,2013-09-17 14:52:00,
2013-09-17 08:00:00,54.0,51.0,-100.00,SSW,206,1.0,4.0,88,-99.99,,,0.00,68.220001,,2013-09-17 15:00:00,
2013-09-17 08:53:00,54.0,51.0,-100.00,SSW,206,1.0,4.0,88,-99.99,,,0.00,68.220001,,2013-09-17 15:53:00,
2013-09-17 09:00:00,59.0,53.0,-100.00,South,185,3.0,7.0,80,-99.99,,,0.00,102.040001,,2013-09-17 16:00:00,
2013-09-17 09:54:00,59.0,53.0,-100.00,South,185,3.0,7.0,80,-99.99,,,0.00,102.040001,,2013-09-17 16:54:00,
2013-09-17 10:00:00,61.0,52.0,-100.00,WSW,238,4.0,15.0,74,-99.99,,,0.00,203.619995,,2013-09-17 17:00:00,
2013-09-17 10:43:00,61.0,52.0,-100.00,WSW,238,4.0,15.0,74,-99.99,,,0.00,203.619995,,2013-09-17 17:43:00,
2013-09-17 10:53:00,61.0,52.0,-100.00,WSW,238,4.0,15.0,74,-99.99,,,0.00,203.619995,,2013-09-17 17:53:00,
2013-09-17 11:00:00,61.0,51.0,-100.00,WNW,284,7.0,16.0,69,-99.99,,,0.00,302.869995,,2013-09-17 18:00:00,
2013-09-17 11:52:00,61.0,51.0,-100.00,WNW,284,7.0,16.0,69,-99.99,,,0.00,302.869995,,2013-09-17 18:52:00,
2013-09-17 12:00:00,63.0,50.0,-100.00,WNW,297,7.0,20.0,62,-99.99,,,0.00,466.619995,,2013-09-17 19:00:00,
2013-09-17 12:42:00,63.0,50.0,-100.00,WNW,297,7.0,20.0,62,-99.99,,,0.00,466.619995,,2013-09-17 19:42:00,
2013-09-17 12:52:00,63.0,50.0,-100.00,WNW,297,7.0,20.0,62,-99.99,,,0.00,466.619995,,2013-09-17 19:52:00,
2013-09-17 13:00:00,65.0,49.0,-100.00,WNW,292,9.0,22.0,56,-99.99,,,0.00,833.880005,,2013-09-17 20:00:00,
2013-09-17 13:42:00,65.0,49.0,-100.00,WNW,292,9.0,22.0,56,-99.99,,,0.00,833.880005,,2013-09-17 20:42:00,
2013-09-17 13:52:00,65.0,49.0,-100.00,WNW,292,9.0,22.0,56,-99.99,,,0.00,833.880005,,2013-09-17 20:52:00,
2013-09-17 14:00:00,67.0,45.0,-100.00,WNW,285,7.0,22.0,46,-99.99,,,0.00,803.780029,,2013-09-17 21:00:00,
2013-09-17 14:44:00,67.0,45.0,-100.00,WNW,285,7.0,22.0,46,-99.99,,,0.00,803.780029,,2013-09-17 21:44:00,
2013-09-17 14:54:00,67.0,45.0,-100.00,WNW,285,7.0,22.0,46,-99.99,,,0.00,803.780029,,2013-09-17 21:54:00,
2013-09-17 15:00:00,67.0,45.0,-100.00,West,278,10.0,23.0,44,-99.99,,,0.00,663.849976,,2013-09-17 22:00:00,
2013-09-17 15:43:00,67.0,45.0,-100.00,West,278,10.0,23.0,44,-99.99,,,0.00,663.849976,,2013-09-17 22:43:00,
2013-09-17 15:53:00,67.0,45.0,-100.00,West,278,10.0,23.0,44,-99.99,,,0.00,663.849976,,2013-09-17 22:53:00,
2013-09-17 16:00:00,67.0,45.0,-100.00,West,276,9.0,21.0,44,-99.99,,,0.00,466.390015,,2013-09-17 23:00:00,
2013-09-17 16:52:00,67.0,45.0,-100.00,West,276,9.0,21.0,44,-99.99,,,0.00,466.390015,,2013-09-17 23:52:00,
2013-09-17 17:00:00,64.0,45.0,-100.00,West,279,10.0,24.0,50,-99.99,,,0.00,83.680000,,2013-09-18 00:00:00,
2013-09-17 17:42:00,64.0,45.0,-100.00,West,279,10.0,24.0,50,-99.99,,,0.00,83.680000,,2013-09-18 00:42:00,
2013-09-17 17:52:00,64.0,45.0,-100.00,West,279,10.0,24.0,50,-99.99,,,0.00,83.680000,,2013-09-18 00:52:00,
2013-09-17 18:00:00,62.0,47.0,-100.00,West,280,6.0,13.0,57,-99.99,,,0.00,65.199997,,2013-09-18 01:00:00,
2013-09-17 18:42:00,62.0,47.0,-100.00,West,280,6.0,13.0,57,-99.99,,,0.00,65.199997,,2013-09-18 01:42:00,
2013-09-17 18:52:00,62.0,47.0,-100.00,West,280,6.0,13.0,57,-99.99,,,0.00,65.199997,,2013-09-18 01:52:00,
2013-09-17 19:00:00,62.0,46.0,-100.00,West,264,6.0,14.0,57,-99.99,,,0.00,19.410000,,2013-09-18 02:00:00,
2013-09-17 19:52:00,62.0,46.0,-100.00,West,264,6.0,14.0,57,-99.99,,,0.00,19.410000,,2013-09-18 02:52:00,
2013-09-17 20:00:00,61.0,47.0,-100.00,WNW,285,5.0,13.0,59,-99.99,,,0.00,0.000000,,2013-09-18 03:00:00,
2013-09-17 20:44:00,61.0,47.0,-100.00,WNW,285,5.0,13.0,59,-99.99,,,0.00,0.000000,,2013-09-18 03:44:00,
2013-09-17 20:55:00,61.0,47.0,-100.00,WNW,285,5.0,13.0,59,-99.99,,,0.00,0.000000,,2013-09-18 03:55:00,
2013-09-17 21:00:00,60.0,48.0,-100.00,West,280,3.0,19.0,65,-99.99,,,0.00,0.000000,,2013-09-18 04:00:00,
2013-09-17 21:44:00,60.0,48.0,-100.00,West,280,3.0,19.0,65,-99.99,,,0.00,0.000000,,2013-09-18 04:44:00,
2013-09-17 21:54:00,60.0,48.0,-100.00,West,280,3.0,19.0,65,-99.99,,,0.00,0.000000,,2013-09-18 04:54:00,
2013-09-17 22:00:00,60.0,49.0,-100.00,West,281,5.0,13.0,67,-99.99,,,0.00,0.000000,,2013-09-18 05:00:00,
2013-09-17 22:43:00,60.0,49.0,-100.00,West,281,5.0,13.0,67,-99.99,,,0.00,0.000000,,2013-09-18 05:43:00,
2013-09-17 22:53:00,60.0,49.0,-100.00,West,281,5.0,13.0,67,-99.99,,,0.00,0.000000,,2013-09-18 05:53:00,
2013-09-17 23:00:00,60.0,48.0,-100.00,West,281,7.0,16.0,66,-99.99,,,0.00,0.000000,,2013-09-18 06:00:00,
2013-09-17 23:42:00,60.0,48.0,-100.00,West,281,7.0,16.0,66,-99.99,,,0.00,0.000000,,2013-09-18 06:42:00,
2013-09-17 23:52:00,60.0,48.0,-100.00,West,281,7.0,16.0,66,-99.99,,,0.00,0.000000,,2013-09-18 06:52:00,